User: anonymous   Login
Location: Carri�res
(48.9069°N, 2.1792°E)
Time: 08:10:52
(UTC+00:00)
Language:

Cosmos 1486 Rocket - Orbit

View from above orbital plane
View from above orbital plane
View from above satellite
View from above satellite

Ground track
Ground track

The orbit data is extracted from the following two-line orbital elements,

1 14241U 83079B   21102.98551981  .00000027  00000-0  18291-4 0  9995
2 14241  74.0607 205.8671 0018332 290.6230  69.2956 14.36217593973182
Epoch (UTC): 12 April 2021 23:39:08
Eccentricity: 0.0018332
inclination: 74.0607°
perigee height: 758 km
apogee height: 784 km
right ascension of ascending node: 205.8671°
argument of perigee: 290.6230°
revolutions per day: 14.36217593
mean anomaly at epoch: 69.2956°
orbit number at epoch: 97318

The dashed part of the orbit path shows where the satellite is in the earth's shadow,  

DLR